Location: Unspecified
(48.8656°N, 0.0000°E)
Time: 14:42:47
(UTC+00:00)

SR - Pass Details

Date: 02 July 2019
Orbit: 580 x 876 km, 66.7° (Epoch: 20 July)

Event Time Altitude Azimuth Distance (km) Brightness Sun altitude
Exits shadow 03:23:00 - 265° (W) 2,821 ? -5.5°
Rises 03:23:02 0° 265° (W) 2,810 ? -5.5°
Reaches altitude 10° 03:25:51 10° 285° (WNW) 1,934 ? -5.2°
Maximum altitude 03:28:50 18° 329° (NNW) 1,521 ? -4.8°
Drops below altitude 10° 03:31:56 10° 12° (NNE) 2,018 ? -4.5°
Sets 03:34:58 0° 32° (NNE) 2,983 ? -4.1°
